When you browse on this site, cookies collect data to enhance your experience and personalize the content and advertising you see.
Visit our Privacy Policy to learn more. By continuing to use the site, you agree to this use of cookies and data.
  • In Österreich
  • Länderverzeichnis
  • Für 7 Tage
  • Wassertemperatur
  • Wetterkarte
  • News
  • Widgets
  • user-avatar
    Anmelden

    Stündliche Wetter Dangriga

    Heute, 18 Februar, Dienstag

    Zeit Temperatur Niederschläge Wind Luftdruck Luftfeuchtigkeit
    00:00 +23°C° 0 mm 7 m/S 759 mmHg 99%
    01:00 +23°C° 0.1 mm 6 m/S 759 mmHg 99%
    02:00 +24°C° 0.1 mm 6 m/S 759 mmHg 99%
    03:00 +24°C° 0.1 mm 6 m/S 759 mmHg 99%
    04:00 +24°C° 0.2 mm 6 m/S 759 mmHg 99%
    05:00 +24°C° 0.2 mm 6 m/S 759 mmHg 99%
    06:00 +24°C° 0.2 mm 6 m/S 759 mmHg 99%
    07:00 +26°C° 0.2 mm 6 m/S 760 mmHg 98%
    08:00 +26°C° 0.2 mm 6 m/S 760 mmHg 97%
    09:00 +27°C° 0.2 mm 6 m/S 761 mmHg 96%
    10:00 +29°C° 0.1 mm 6 m/S 760 mmHg 84%
    11:00 +30°C° 0.1 mm 6 m/S 760 mmHg 72%
    12:00 +33°C° 0.1 mm 6 m/S 759 mmHg 60%
    13:00 +33°C° 0.1 mm 6 m/S 759 mmHg 62%
    14:00 +32°C° 0.1 mm 6 m/S 759 mmHg 64%
    15:00 +32°C° 0.1 mm 6 m/S 758 mmHg 65%
    16:00 +30°C° 0 mm 5 m/S 758 mmHg 75%
    17:00 +28°C° 0 mm 5 m/S 758 mmHg 84%
    18:00 +26°C° 0 mm 5 m/S 759 mmHg 93%
    19:00 +26°C° 0.2 mm 5 m/S 759 mmHg 95%
    20:00 +26°C° 0.2 mm 5 m/S 760 mmHg 97%
    21:00 +25°C° 0.2 mm 5 m/S 760 mmHg 99%
    22:00 +24°C° 0.4 mm 6 m/S 760 mmHg 99%
    23:00 +24°C° 0.4 mm 6 m/S 760 mmHg 99%

    Morgen, 19 Februar, Mittwoch

    Zeit Temperatur Niederschläge Wind Luftdruck Luftfeuchtigkeit
    00:00 +24°C° 0.4 mm 6 m/S 760 mmHg 99%
    01:00 +24°C° 0.3 mm 6 m/S 760 mmHg 98%
    02:00 +24°C° 0.3 mm 6 m/S 759 mmHg 98%
    03:00 +24°C° 0.3 mm 6 m/S 759 mmHg 98%
    04:00 +24°C° 0.1 mm 6 m/S 760 mmHg 98%
    05:00 +24°C° 0.1 mm 6 m/S 760 mmHg 98%
    06:00 +24°C° 0.1 mm 6 m/S 761 mmHg 98%
    07:00 +26°C° 0.1 mm 5 m/S 761 mmHg 96%
    08:00 +27°C° 0.1 mm 5 m/S 762 mmHg 93%
    09:00 +28°C° 0.1 mm 5 m/S 762 mmHg 90%
    10:00 +29°C° 0 mm 5 m/S 762 mmHg 79%
    11:00 +32°C° 0 mm 5 m/S 762 mmHg 68%
    12:00 +33°C° 0 mm 5 m/S 762 mmHg 57%
    13:00 +33°C° 0 mm 5 m/S 761 mmHg 58%
    14:00 +33°C° 0 mm 5 m/S 760 mmHg 58%
    15:00 +33°C° 0 mm 5 m/S 760 mmHg 59%
    16:00 +30°C° 0 mm 4 m/S 760 mmHg 70%
    17:00 +28°C° 0 mm 4 m/S 760 mmHg 82%
    18:00 +26°C° 0 mm 4 m/S 760 mmHg 93%
    19:00 +26°C° 0.1 mm 4 m/S 761 mmHg 95%
    20:00 +25°C° 0.1 mm 4 m/S 761 mmHg 97%
    21:00 +25°C° 0.1 mm 4 m/S 762 mmHg 98%
    22:00 +25°C° 0.3 mm 4 m/S 761 mmHg 99%
    23:00 +25°C° 0.3 mm 4 m/S 761 mmHg 99%

    übermorgen, 20 Februar, Donnerstag

    Zeit Temperatur Niederschläge Wind Luftdruck Luftfeuchtigkeit
    00:00 +25°C° 0.3 mm 4 m/S 761 mmHg 99%
    01:00 +25°C° 0.3 mm 4 m/S 761 mmHg 99%
    02:00 +25°C° 0.3 mm 4 m/S 760 mmHg 99%
    03:00 +25°C° 0.3 mm 4 m/S 760 mmHg 99%
    04:00 +25°C° 0.4 mm 4 m/S 760 mmHg 99%
    05:00 +25°C° 0.4 mm 4 m/S 761 mmHg 99%
    06:00 +25°C° 0.4 mm 4 m/S 761 mmHg 99%
    07:00 +26°C° 1.1 mm 4 m/S 761 mmHg 97%
    08:00 +27°C° 1.1 mm 5 m/S 762 mmHg 96%
    09:00 +28°C° 1.1 mm 5 m/S 762 mmHg 95%
    10:00 +28°C° 0.3 mm 5 m/S 762 mmHg 92%
    11:00 +29°C° 0.3 mm 5 m/S 762 mmHg 90%
    12:00 +29°C° 0.3 mm 5 m/S 762 mmHg 87%
    13:00 +30°C° 0.2 mm 5 m/S 761 mmHg 81%
    14:00 +30°C° 0.2 mm 4 m/S 760 mmHg 75%
    15:00 +32°C° 0.2 mm 4 m/S 760 mmHg 69%
    16:00 +29°C° 0.1 mm 4 m/S 760 mmHg 78%
    17:00 +27°C° 0.1 mm 3 m/S 760 mmHg 87%
    18:00 +26°C° 0.1 mm 3 m/S 761 mmHg 96%
    19:00 +25°C° 0 mm 3 m/S 761 mmHg 97%
    20:00 +25°C° 0 mm 3 m/S 762 mmHg 98%
    21:00 +25°C° 0 mm 2 m/S 762 mmHg 98%
    22:00 +24°C° 0 mm 2 m/S 762 mmHg 98%
    23:00 +24°C° 0 mm 2 m/S 762 mmHg 98%

    21 Februar, Freitag

    Zeit Temperatur Niederschläge Wind Luftdruck Luftfeuchtigkeit
    00:00 +24°C° 0 mm 2 m/S 762 mmHg 98%
    07:00 +26°C° 0 mm 3 m/S 763 mmHg 91%
    08:00 +27°C° 0 mm 4 m/S 764 mmHg 84%
    09:00 +28°C° 0 mm 4 m/S 764 mmHg 78%
    10:00 +30°C° 0 mm 4 m/S 764 mmHg 68%
    11:00 +32°C° 0 mm 5 m/S 764 mmHg 58%
    12:00 +34°C° 0 mm 5 m/S 764 mmHg 48%
    13:00 +33°C° 0.2 mm 5 m/S 763 mmHg 58%
    14:00 +32°C° 0.2 mm 5 m/S 762 mmHg 68%
    15:00 +30°C° 0.2 mm 6 m/S 762 mmHg 78%
    16:00 +28°C° 0.1 mm 6 m/S 762 mmHg 82%
    17:00 +27°C° 0.1 mm 6 m/S 762 mmHg 87%
    18:00 +26°C° 0.1 mm 6 m/S 762 mmHg 91%
    19:00 +24°C° 0 mm 6 m/S 763 mmHg 92%
    20:00 +23°C° 0 mm 5 m/S 763 mmHg 94%
    21:00 +23°C° 0 mm 5 m/S 763 mmHg 95%
    22:00 +23°C° 0.1 mm 5 m/S 764 mmHg 95%
    23:00 +23°C° 0.1 mm 5 m/S 764 mmHg 95%

    22 Februar, Samstag

    Zeit Temperatur Niederschläge Wind Luftdruck Luftfeuchtigkeit
    00:00 +23°C° 0.1 mm 5 m/S 764 mmHg 95%
    01:00 +23°C° 1.1 mm 5 m/S 763 mmHg 96%
    02:00 +22°C° 1.1 mm 5 m/S 763 mmHg 97%
    03:00 +22°C° 1.1 mm 5 m/S 763 mmHg 98%
    04:00 +23°C° 0.9 mm 5 m/S 763 mmHg 98%
    05:00 +23°C° 0.9 mm 5 m/S 763 mmHg 98%
    06:00 +23°C° 0.9 mm 5 m/S 764 mmHg 99%
    07:00 +23°C° 0.7 mm 5 m/S 764 mmHg 97%
    08:00 +25°C° 0.7 mm 5 m/S 765 mmHg 94%
    09:00 +24°C° 0.7 mm 6 m/S 765 mmHg 92%
    10:00 +26°C° 0.7 mm 6 m/S 765 mmHg 90%
    11:00 +26°C° 0.7 mm 5 m/S 765 mmHg 89%
    12:00 +27°C° 0.7 mm 5 m/S 764 mmHg 87%
    13:00 +27°C° 0.7 mm 6 m/S 764 mmHg 89%
    14:00 +27°C° 0.7 mm 6 m/S 763 mmHg 91%
    15:00 +27°C° 0.7 mm 6 m/S 762 mmHg 93%
    16:00 +26°C° 0.3 mm 6 m/S 763 mmHg 95%
    17:00 +24°C° 0.3 mm 6 m/S 763 mmHg 97%
    18:00 +23°C° 0.3 mm 6 m/S 763 mmHg 98%
    19:00 +23°C° 0.2 mm 5 m/S 763 mmHg 98%
    20:00 +23°C° 0.2 mm 5 m/S 764 mmHg 98%
    21:00 +23°C° 0.2 mm 5 m/S 764 mmHg 98%
    22:00 +22°C° 0.1 mm 5 m/S 764 mmHg 98%
    23:00 +22°C° 0.1 mm 5 m/S 764 mmHg 98%

    23 Februar, Sonntag

    Zeit Temperatur Niederschläge Wind Luftdruck Luftfeuchtigkeit
    00:00 +22°C° 0.1 mm 5 m/S 763 mmHg 98%
    01:00 +22°C° 0.2 mm 5 m/S 763 mmHg 99%
    02:00 +22°C° 0.2 mm 5 m/S 763 mmHg 99%
    03:00 +22°C° 0.2 mm 5 m/S 762 mmHg 99%
    04:00 +22°C° 0.2 mm 4 m/S 762 mmHg 99%
    05:00 +22°C° 0.2 mm 4 m/S 762 mmHg 99%
    06:00 +22°C° 0.2 mm 4 m/S 763 mmHg 98%
    07:00 +23°C° 0.2 mm 4 m/S 763 mmHg 96%
    08:00 +23°C° 0.2 mm 4 m/S 763 mmHg 94%
    09:00 +25°C° 0.2 mm 3 m/S 764 mmHg 92%
    10:00 +27°C° 0.1 mm 3 m/S 763 mmHg 81%
    11:00 +29°C° 0.1 mm 4 m/S 763 mmHg 70%
    12:00 +32°C° 0.1 mm 4 m/S 762 mmHg 59%
    13:00 +30°C° 0 mm 4 m/S 761 mmHg 65%
    14:00 +29°C° 0 mm 4 m/S 760 mmHg 72%
    15:00 +28°C° 0 mm 4 m/S 760 mmHg 78%
    16:00 +27°C° 0 mm 4 m/S 760 mmHg 82%
    17:00 +26°C° 0 mm 3 m/S 760 mmHg 86%
    18:00 +25°C° 0 mm 3 m/S 760 mmHg 90%
    19:00 +24°C° 0 mm 3 m/S 760 mmHg 91%
    20:00 +24°C° 0 mm 3 m/S 760 mmHg 92%
    21:00 +24°C° 0 mm 3 m/S 760 mmHg 93%
    22:00 +22°C° 0 mm 3 m/S 760 mmHg 95%
    23:00 +23°C° 0 mm 2 m/S 760 mmHg 97%
    Mehr zeigen